Weather History for KHAI - February, 2014

Change the Weather History Date:

Sunday, February 9, 2014

  Actual Average Record
Temperature  
Mean Temperature 16 °F -  
Max Temperature 21 °F 32 °F 58 °F (1990)
Min Temperature 11 °F 12 °F -18 °F (1979)
Degree Days  
Heating Degree Days 49    
Moisture  
Dew Point 10 °F    
Average Humidity 79    
Maximum Humidity 87    
Minimum Humidity 66    
Precipitation  
Precipitation 0.00 in - - ()
Sea Level Pressure  
Sea Level Pressure 30.10 in    
Wind  
Wind Speed 4 mph (West)    
Max Wind Speed 16 mph    
Max Gust Speed 20 mph    
Visibility 6 miles    
Events Snow    
Averages and records for this station are not official NWS values.
T = Trace of Precipitation, MM = Missing Value Source: NWS Daily Summary

Daily Weather History Graph

Daily Weather History Graph

Search for Another Location

Airport or City:

Trip Planner

Search our weather history database for the weather conditions in past years. The results will help you decide how hot, cold, wet, or windy it might be!

Date:

Astronomy

Feb. 09, 2014 Rise Set
Actual Time 7:45 AM EST 6:07 PM EST
Civil Twilight 7:17 AM EST 6:36 PM EST
Nautical Twilight 6:44 AM EST 7:09 PM EST
Astronomical Twilight 6:11 AM EST 7:42 PM EST
Moon 1:45 PM EST (2/9) 3:52 AM EST (2/9)
Length of Visible Light 11h 19m
Length of Day
10h 21m
Waxing Gibbous, 77% of the Moon is Illuminated
Feb 9
Waxing Gibbous
Feb 14
Full
Feb 22
Last Quarter
Mar 1
New
Mar 8
First Quarter

Hourly Weather History & Observations

Time (EST) Temp. Windchill Dew Point Humidity Pressure Visibility Wind Dir Wind Speed Gust Speed Precip Events Conditions
12:14 AM 13.8 °F 8.0 °F 9.5 °F 83% 30.12 in 4.0 mi South 3.5 mph - N/A Snow Light Snow
12:35 AM 13.6 °F - 9.5 °F 84% 30.11 in 5.0 mi Calm Calm - N/A Snow Light Snow
12:54 AM 13.6 °F - 9.5 °F 84% 30.11 in 4.0 mi Calm Calm - N/A Snow Light Snow
1:15 AM 13.5 °F - 9.3 °F 84% 30.11 in 5.0 mi Calm Calm - N/A Snow Light Snow
1:35 AM 13.1 °F - 9.3 °F 85% 30.10 in 4.0 mi Calm Calm - N/A Snow Light Snow
1:54 AM 13.1 °F - 9.3 °F 85% 30.10 in 7.0 mi Calm Calm - N/A Snow Light Snow
2:15 AM 13.1 °F - 9.1 °F 84% 30.10 in 7.0 mi Calm Calm - N/A Snow Light Snow
2:35 AM 13.1 °F - 9.3 °F 85% 30.10 in 7.0 mi Calm Calm - N/A Snow Light Snow
2:54 AM 13.1 °F - 9.1 °F 84% 30.09 in 5.0 mi Calm Calm - N/A Snow Light Snow
3:15 AM 12.7 °F - 9.0 °F 85% 30.09 in 5.0 mi Calm Calm - N/A Snow Light Snow
3:35 AM 12.7 °F - 9.1 °F 86% 30.08 in 7.0 mi Calm Calm - N/A   Overcast
3:54 AM 12.9 °F - 9.1 °F 85% 30.08 in 5.0 mi Calm Calm - N/A Snow Light Snow
4:15 AM 13.1 °F - 9.3 °F 85% 30.09 in 4.0 mi Calm Calm - N/A Snow Light Snow
4:35 AM 13.1 °F - 9.3 °F 85% 30.08 in 4.0 mi Calm Calm - N/A Snow Light Snow
4:54 AM 13.1 °F - 9.5 °F 86% 30.07 in 1.2 mi Calm Calm - N/A Snow Light Snow
5:15 AM 13.1 °F - 9.5 °F 86% 30.07 in 2.5 mi Calm Calm - N/A Snow Light Snow
5:34 AM 13.1 °F - 9.5 °F 86% 30.06 in 4.0 mi Calm Calm - N/A Snow Light Snow
5:55 AM 13.1 °F - 9.5 °F 86% 30.06 in 1.5 mi Calm Calm - N/A Snow Light Snow
6:14 AM 13.1 °F 7.1 °F 9.5 °F 86% 30.07 in 2.5 mi SW 3.5 mph - N/A Snow Light Snow
6:35 AM 13.1 °F - 9.5 °F 86% 30.07 in 4.0 mi Calm Calm - N/A Snow Light Snow
6:55 AM 12.9 °F 6.9 °F 9.3 °F 86% 30.06 in 4.0 mi South 3.5 mph - N/A Snow Light Snow
7:14 AM 12.7 °F 6.7 °F 9.1 °F 86% 30.06 in 3.0 mi South 3.5 mph - N/A Snow Light Snow
7:35 AM 12.7 °F - 9.3 °F 86% 30.05 in 4.0 mi Calm Calm - N/A Snow Light Snow
7:55 AM 12.6 °F - 9.1 °F 86% 30.05 in 2.0 mi Calm Calm - N/A Snow Light Snow
8:14 AM 12.7 °F - 9.3 °F 86% 30.06 in 1.5 mi Calm Calm - N/A Snow Light Snow
8:35 AM 12.2 °F - 8.8 °F 86% 30.06 in 3.0 mi Calm Calm - N/A   Mostly Cloudy
8:54 AM 12.9 °F - 9.7 °F 87% 30.07 in 3.0 mi Calm Calm - N/A Snow Light Snow
9:14 AM 15.6 °F 8.3 °F 12.0 °F 86% 30.07 in 2.5 mi West 4.6 mph - N/A Snow Light Snow
9:35 AM 16.7 °F 7.2 °F 12.2 °F 82% 30.06 in 4.0 mi West 6.9 mph - N/A Snow Light Snow
9:54 AM 17.6 °F 9.3 °F 12.7 °F 81% 30.06 in 3.0 mi West 5.8 mph - N/A Snow Light Snow
10:15 AM 18.1 °F 7.9 °F 12.7 °F 79% 30.06 in 5.0 mi West 8.1 mph - N/A Snow Light Snow
10:34 AM 18.5 °F 6.8 °F 12.9 °F 79% 30.06 in 5.0 mi West 10.4 mph - N/A Snow Light Snow
10:54 AM 18.9 °F 5.9 °F 12.7 °F 77% 30.07 in 7.0 mi West 12.7 mph - N/A Snow Light Snow
11:15 AM 19.4 °F 7.2 °F 12.9 °F 76% 30.07 in 10.0 mi West 11.5 mph - N/A   Overcast
11:34 AM 19.6 °F 7.4 °F 12.4 °F 74% 30.07 in 10.0 mi West 11.5 mph - N/A   Overcast
11:55 AM 19.9 °F 7.9 °F 11.8 °F 71% 30.06 in 10.0 mi WNW 11.5 mph 17.3 mph N/A Snow Light Snow
12:15 PM 20.3 °F 7.2 °F 11.3 °F 68% 30.07 in 10.0 mi West 13.8 mph - N/A   Scattered Clouds
12:34 PM 21.0 °F 8.6 °F 11.1 °F 66% 30.07 in 10.0 mi WNW 12.7 mph - N/A   Mostly Cloudy
12:55 PM 20.3 °F 6.1 °F 12.2 °F 71% 30.07 in 10.0 mi West 16.1 mph - N/A   Overcast
1:15 PM 20.1 °F 7.5 °F 12.0 °F 71% 30.07 in 10.0 mi West 12.7 mph - N/A Snow Light Snow
1:34 PM 20.3 °F 7.7 °F 11.7 °F 69% 30.06 in 7.0 mi WNW 12.7 mph - N/A Snow Light Snow
1:55 PM 20.1 °F 6.9 °F 10.9 °F 68% 30.06 in 10.0 mi WNW 13.8 mph - N/A   Mostly Cloudy
2:15 PM 19.6 °F 5.7 °F 10.4 °F 68% 30.06 in 10.0 mi West 15.0 mph - N/A   Mostly Cloudy
2:34 PM 19.8 °F 7.7 °F 11.3 °F 70% 30.05 in 3.0 mi WNW 11.5 mph - N/A Snow Light Snow
2:55 PM 19.9 °F 6.7 °F 10.2 °F 66% 30.05 in 10.0 mi WNW 13.8 mph 19.6 mph N/A Snow Light Snow
3:14 PM 19.9 °F 8.6 °F 10.2 °F 66% 30.05 in 10.0 mi WNW 10.4 mph 17.3 mph N/A Snow Light Snow
3:34 PM 20.1 °F 8.8 °F 10.4 °F 66% 30.06 in 10.0 mi WNW 10.4 mph - N/A   Overcast
3:55 PM 19.9 °F 7.3 °F 10.6 °F 67% 30.06 in 10.0 mi WNW 12.7 mph 17.3 mph N/A   Overcast
4:14 PM 19.4 °F 7.9 °F 10.0 °F 67% 30.07 in 10.0 mi WNW 10.4 mph - N/A   Overcast
4:35 PM 19.8 °F 9.1 °F 10.4 °F 67% 30.09 in 10.0 mi WNW 9.2 mph - N/A Snow Light Snow
4:55 PM 18.9 °F 6.5 °F 10.2 °F 69% 30.11 in 10.0 mi West 11.5 mph - N/A   Overcast
5:14 PM 19.2 °F 7.7 °F 9.5 °F 66% 30.12 in 10.0 mi West 10.4 mph - N/A Snow Light Snow
5:35 PM 19.0 °F 7.5 °F 10.0 °F 68% 30.13 in 10.0 mi West 10.4 mph - N/A Snow Light Snow
5:55 PM 18.5 °F 7.5 °F 10.9 °F 72% 30.14 in 3.0 mi West 9.2 mph - N/A Snow Light Snow
6:14 PM 17.4 °F 6.2 °F 12.0 °F 79% 30.15 in 1.8 mi West 9.2 mph - N/A Snow Light Snow
6:35 PM 16.7 °F 8.3 °F 11.3 °F 79% 30.15 in 5.0 mi West 5.8 mph - N/A Snow Light Snow
6:55 PM 15.6 °F 8.3 °F 10.6 °F 80% 30.15 in 5.0 mi WSW 4.6 mph - N/A Snow Light Snow
7:14 PM 14.9 °F 7.5 °F 10.4 °F 82% 30.17 in 3.0 mi West 4.6 mph - N/A Snow Light Snow
7:35 PM 15.6 °F 8.3 °F 10.4 °F 80% 30.16 in 10.0 mi WSW 4.6 mph - N/A Snow Light Snow
7:54 PM 14.4 °F 6.9 °F 9.0 °F 79% 30.17 in 10.0 mi SW 4.6 mph - N/A   Overcast
8:14 PM 13.5 °F 5.8 °F 8.6 °F 81% 30.18 in 10.0 mi WSW 4.6 mph - N/A   Overcast
8:35 PM 13.5 °F 7.5 °F 8.2 °F 80% 30.18 in 7.0 mi WSW 3.5 mph - N/A Snow Light Snow
8:54 PM 14.0 °F 6.5 °F 8.2 °F 78% 30.18 in 10.0 mi West 4.6 mph - N/A   Overcast
9:15 PM 14.0 °F 2.9 °F 7.7 °F 76% 30.18 in 7.0 mi WSW 8.1 mph - N/A Snow Light Snow
9:35 PM 13.6 °F 2.5 °F 7.5 °F 77% 30.18 in 7.0 mi WSW 8.1 mph - N/A Snow Light Snow
9:54 PM 13.1 °F 1.8 °F 7.2 °F 77% 30.19 in 10.0 mi West 8.1 mph - N/A Snow Light Snow
10:15 PM 12.9 °F 1.6 °F 7.2 °F 78% 30.18 in 10.0 mi WSW 8.1 mph - N/A   Scattered Clouds
10:35 PM 12.9 °F 3.8 °F 7.2 °F 78% 30.18 in 10.0 mi WSW 5.8 mph - N/A   Clear
10:54 PM 12.6 °F 2.2 °F 7.0 °F 78% 30.18 in 10.0 mi West 6.9 mph - N/A   Scattered Clouds
11:15 PM 12.2 °F 1.7 °F 6.8 °F 79% 30.18 in 10.0 mi West 6.9 mph - N/A   Scattered Clouds
11:35 PM 11.8 °F 3.9 °F 6.6 °F 80% 30.19 in 5.0 mi WSW 4.6 mph - N/A Snow Light Snow
11:54 PM 11.3 °F 1.9 °F 6.8 °F 82% 30.19 in 5.0 mi West 5.8 mph - N/A Snow Light Snow